When you browse on this site, cookies collect data to enhance your experience and personalize the content and advertising you see.
Visit our Privacy Policy to learn more. By continuing to use the site, you agree to this use of cookies and data.
  • In Deutschland
  • Länderverzeichnis
  • Für 7 Tage
  • Wassertemperatur
  • Satellitenkarten
  • Wetterkarte
  • Widgets
  • user-avatar
    Anmelden

    Stündliche Wetter Malopole

    Heute, 23 Juli, Dienstag

    Zeit Temperatur Niederschläge Wind Luftdruck Luftfeuchtigkeit
    00:00 +18°C° 0 mm 1 m/S 756 mmHg 79%
    01:00 +16°C° 0 mm 1 m/S 756 mmHg 81%
    02:00 +16°C° 0 mm 1 m/S 756 mmHg 81%
    03:00 +15°C° 0 mm 1 m/S 756 mmHg 80%
    04:00 +15°C° 0 mm 1 m/S 756 mmHg 80%
    05:00 +16°C° 0 mm 1 m/S 756 mmHg 77%
    06:00 +17°C° 0 mm 2 m/S 756 mmHg 75%
    07:00 +18°C° 0 mm 2 m/S 756 mmHg 72%
    08:00 +18°C° 0 mm 3 m/S 756 mmHg 73%
    09:00 +18°C° 0 mm 3 m/S 756 mmHg 73%
    10:00 +18°C° 0 mm 3 m/S 756 mmHg 74%
    11:00 +18°C° 0 mm 3 m/S 756 mmHg 73%
    12:00 +19°C° 0 mm 3 m/S 755 mmHg 72%
    13:00 +20°C° 0 mm 4 m/S 755 mmHg 71%
    14:00 +20°C° 0 mm 4 m/S 755 mmHg 70%
    15:00 +21°C° 0 mm 4 m/S 755 mmHg 69%
    16:00 +21°C° 0 mm 4 m/S 755 mmHg 69%
    17:00 +20°C° 0 mm 3 m/S 755 mmHg 73%
    18:00 +19°C° 0 mm 3 m/S 755 mmHg 78%
    19:00 +18°C° 0 mm 3 m/S 754 mmHg 83%
    20:00 +17°C° 0 mm 2 m/S 755 mmHg 86%
    21:00 +17°C° 0 mm 2 m/S 755 mmHg 90%
    22:00 +16°C° 0 mm 2 m/S 755 mmHg 93%
    23:00 +15°C° 0 mm 2 m/S 755 mmHg 93%

    Morgen, 24 Juli, Mittwoch

    Zeit Temperatur Niederschläge Wind Luftdruck Luftfeuchtigkeit
    00:00 +15°C° 0 mm 1 m/S 755 mmHg 94%
    01:00 +15°C° 0 mm 1 m/S 755 mmHg 94%
    02:00 +15°C° 0 mm 1 m/S 755 mmHg 94%
    03:00 +15°C° 0 mm 1 m/S 755 mmHg 94%
    04:00 +15°C° 0 mm 1 m/S 755 mmHg 93%
    05:00 +16°C° 0 mm 1 m/S 755 mmHg 88%
    06:00 +19°C° 0 mm 1 m/S 755 mmHg 82%
    07:00 +20°C° 0 mm 1 m/S 755 mmHg 77%
    08:00 +21°C° 0 mm 1 m/S 755 mmHg 71%
    09:00 +23°C° 0 mm 2 m/S 755 mmHg 65%
    10:00 +24°C° 0 mm 2 m/S 755 mmHg 59%
    11:00 +25°C° 0 mm 2 m/S 755 mmHg 55%
    12:00 +26°C° 0 mm 2 m/S 755 mmHg 51%
    13:00 +27°C° 0 mm 2 m/S 755 mmHg 46%
    14:00 +27°C° 0 mm 2 m/S 755 mmHg 46%
    15:00 +27°C° 0 mm 2 m/S 755 mmHg 46%
    16:00 +27°C° 0 mm 3 m/S 755 mmHg 46%
    17:00 +26°C° 0 mm 2 m/S 755 mmHg 52%
    18:00 +25°C° 0 mm 2 m/S 755 mmHg 58%
    19:00 +23°C° 0 mm 1 m/S 754 mmHg 64%
    20:00 +22°C° 0 mm 1 m/S 755 mmHg 67%
    21:00 +21°C° 0 mm 1 m/S 755 mmHg 71%
    22:00 +20°C° 0 mm 1 m/S 756 mmHg 75%
    23:00 +20°C° 0 mm 1 m/S 756 mmHg 79%

    übermorgen, 25 Juli, Donnerstag

    Zeit Temperatur Niederschläge Wind Luftdruck Luftfeuchtigkeit
    00:00 +19°C° 0 mm 1 m/S 756 mmHg 82%
    01:00 +19°C° 0 mm 1 m/S 756 mmHg 86%
    02:00 +18°C° 0 mm 1 m/S 756 mmHg 87%
    03:00 +18°C° 0 mm 1 m/S 756 mmHg 89%
    04:00 +18°C° 0 mm 1 m/S 756 mmHg 90%
    05:00 +19°C° 0 mm 1 m/S 756 mmHg 85%
    06:00 +21°C° 0 mm 1 m/S 756 mmHg 79%
    07:00 +23°C° 0 mm 1 m/S 756 mmHg 74%
    08:00 +24°C° 0.1 mm 1 m/S 756 mmHg 68%
    09:00 +25°C° 0.1 mm 2 m/S 756 mmHg 63%
    10:00 +27°C° 0.1 mm 2 m/S 756 mmHg 57%
    11:00 +27°C° 0.1 mm 2 m/S 755 mmHg 54%
    12:00 +28°C° 0.1 mm 2 m/S 755 mmHg 50%
    13:00 +28°C° 0.1 mm 3 m/S 755 mmHg 47%
    14:00 +28°C° 0 mm 3 m/S 755 mmHg 47%
    15:00 +28°C° 0 mm 3 m/S 754 mmHg 47%
    16:00 +28°C° 0 mm 4 m/S 754 mmHg 47%
    17:00 +27°C° 0 mm 4 m/S 754 mmHg 56%
    18:00 +25°C° 0 mm 4 m/S 754 mmHg 64%
    19:00 +22°C° 0 mm 4 m/S 754 mmHg 73%
    20:00 +21°C° 0 mm 4 m/S 754 mmHg 75%
    21:00 +20°C° 0 mm 3 m/S 754 mmHg 78%
    22:00 +18°C° 0 mm 3 m/S 755 mmHg 81%
    23:00 +17°C° 0 mm 3 m/S 754 mmHg 85%

    26 Juli, Freitag

    Zeit Temperatur Niederschläge Wind Luftdruck Luftfeuchtigkeit
    00:00 +17°C° 0 mm 3 m/S 754 mmHg 89%
    01:00 +16°C° 0 mm 3 m/S 754 mmHg 92%
    02:00 +16°C° 0 mm 3 m/S 754 mmHg 93%
    03:00 +16°C° 0 mm 3 m/S 754 mmHg 93%
    04:00 +16°C° 0 mm 3 m/S 754 mmHg 94%
    05:00 +17°C° 0 mm 3 m/S 754 mmHg 88%
    06:00 +18°C° 0 mm 4 m/S 754 mmHg 81%
    07:00 +19°C° 0 mm 4 m/S 754 mmHg 75%
    08:00 +20°C° 0.1 mm 4 m/S 754 mmHg 71%
    09:00 +21°C° 0.1 mm 5 m/S 754 mmHg 67%
    10:00 +23°C° 0.1 mm 5 m/S 754 mmHg 63%
    11:00 +23°C° 0 mm 5 m/S 754 mmHg 62%
    12:00 +23°C° 0 mm 5 m/S 754 mmHg 61%
    13:00 +23°C° 0 mm 5 m/S 753 mmHg 61%
    14:00 +25°C° 0 mm 5 m/S 753 mmHg 62%
    15:00 +25°C° 0 mm 5 m/S 753 mmHg 62%
    16:00 +25°C° 0 mm 5 m/S 753 mmHg 63%
    17:00 +23°C° 0 mm 4 m/S 753 mmHg 69%
    18:00 +22°C° 0 mm 4 m/S 753 mmHg 74%
    19:00 +20°C° 0 mm 3 m/S 753 mmHg 80%
    20:00 +20°C° 0 mm 3 m/S 753 mmHg 84%
    21:00 +19°C° 0 mm 3 m/S 754 mmHg 88%
    22:00 +18°C° 0 mm 3 m/S 754 mmHg 91%
    23:00 +18°C° 0 mm 3 m/S 754 mmHg 91%

    27 Juli, Samstag

    Zeit Temperatur Niederschläge Wind Luftdruck Luftfeuchtigkeit
    00:00 +18°C° 0 mm 3 m/S 754 mmHg 91%
    01:00 +18°C° 0 mm 3 m/S 754 mmHg 91%
    02:00 +18°C° 0 mm 3 m/S 754 mmHg 93%
    03:00 +18°C° 0 mm 3 m/S 754 mmHg 94%
    04:00 +17°C° 0 mm 3 m/S 754 mmHg 95%
    05:00 +19°C° 0 mm 3 m/S 754 mmHg 90%
    06:00 +20°C° 0 mm 4 m/S 754 mmHg 85%
    07:00 +21°C° 0 mm 4 m/S 754 mmHg 79%
    08:00 +23°C° 0 mm 4 m/S 754 mmHg 72%
    09:00 +26°C° 0 mm 4 m/S 754 mmHg 64%
    10:00 +27°C° 0 mm 5 m/S 754 mmHg 57%
    11:00 +28°C° 0 mm 5 m/S 754 mmHg 55%
    12:00 +29°C° 0 mm 5 m/S 754 mmHg 53%
    13:00 +30°C° 0 mm 5 m/S 753 mmHg 50%
    14:00 +30°C° 0 mm 5 m/S 753 mmHg 50%
    15:00 +30°C° 0 mm 5 m/S 753 mmHg 50%
    16:00 +30°C° 0 mm 5 m/S 753 mmHg 49%
    17:00 +29°C° 0 mm 4 m/S 753 mmHg 56%
    18:00 +27°C° 0 mm 3 m/S 753 mmHg 62%
    19:00 +26°C° 0 mm 3 m/S 753 mmHg 68%
    20:00 +25°C° 0 mm 3 m/S 753 mmHg 73%
    21:00 +22°C° 0 mm 3 m/S 754 mmHg 79%
    22:00 +21°C° 0 mm 2 m/S 754 mmHg 84%
    23:00 +21°C° 0 mm 2 m/S 754 mmHg 86%

    28 Juli, Sonntag

    Zeit Temperatur Niederschläge Wind Luftdruck Luftfeuchtigkeit
    00:00 +20°C° 0 mm 2 m/S 754 mmHg 88%
    01:00 +20°C° 0 mm 2 m/S 754 mmHg 90%
    02:00 +20°C° 0 mm 2 m/S 754 mmHg 91%
    03:00 +19°C° 0 mm 2 m/S 754 mmHg 91%
    04:00 +19°C° 0 mm 2 m/S 754 mmHg 92%
    05:00 +21°C° 0 mm 2 m/S 754 mmHg 85%
    06:00 +23°C° 0 mm 2 m/S 754 mmHg 79%
    07:00 +25°C° 0 mm 2 m/S 754 mmHg 72%
    08:00 +26°C° 0 mm 3 m/S 754 mmHg 65%
    09:00 +28°C° 0 mm 3 m/S 754 mmHg 58%
    10:00 +30°C° 0 mm 3 m/S 754 mmHg 51%
    11:00 +30°C° 0 mm 3 m/S 754 mmHg 50%
    12:00 +30°C° 0 mm 3 m/S 754 mmHg 50%
    13:00 +30°C° 0 mm 3 m/S 753 mmHg 49%
    14:00 +30°C° 0 mm 3 m/S 753 mmHg 48%
    15:00 +31°C° 0 mm 3 m/S 753 mmHg 47%
    16:00 +31°C° 0 mm 3 m/S 753 mmHg 46%
    17:00 +29°C° 0 mm 3 m/S 753 mmHg 52%
    18:00 +28°C° 0 mm 2 m/S 753 mmHg 58%
    19:00 +27°C° 0 mm 2 m/S 753 mmHg 64%
    20:00 +26°C° 0 mm 2 m/S 753 mmHg 67%
    21:00 +25°C° 0 mm 2 m/S 754 mmHg 71%
    22:00 +23°C° 0 mm 2 m/S 754 mmHg 74%
    23:00 +23°C° 0 mm 2 m/S 754 mmHg 78%
    Mehr zeigen